Location: Beccas
(43.4309°N, 0.1528°E)
Time: 10:54:10
(UTC+00:00)

Cosmos 1356 - Pass Details

Date: 15 October 2021
Orbit: 433 x 436 km, 81.1° (Epoch: 02 December)

Event Time Altitude Azimuth Distance (km) Brightness Sun altitude
Rises 18:21:45 0° 345° (NNW) 2,435 7.3 -12.7°
Reaches altitude 10° 18:23:50 10° 341° (NNW) 1,561 6.4 -13.1°
Maximum altitude 18:27:10 55° 263° (W) 534 4.1 -13.7°
Drops below altitude 10° 18:30:30 10° 185° (S) 1,550 6.2 -14.3°
Sets 18:32:33 0° 180° (S) 2,415 7.1 -14.6°
